Reflectivity
-20 -7 -20 -20 -20 -11 -20 -20 -20 -20 -20 -20 -20 0 -10 8 -3 -20 -20 -20 -20 -20 -20 -20 -20 -20 -20 -20 -20 -20 -20 -20 2 -1 -20 -20 -20 -20 -20 -20 -20 -20 -20 -20
3 2 -20 -20 -20 -20 6 -20 -20 -20 -20 -17 -20 -20 -20 -15 -20 -20 -20 -20 -20 -20 -20 -20 -20 -20 -20 -20 -20 -20 -20 -20 -1 -15 -20 -20 -20 -20 -20 -20 -7 -20 -20 -20
3 -12 -20 -20 -20 -20 -20 -20 -20 -20 -20 10 11 -13 -13 -20 -20 -20 -20 -20 -20 -20 -20 -20 -20 -20 -20 -20 -20 -20 -20 -20 -20 -20 -20 -20 -20 -20 -20 -20 -20 -20 -20 -20
-8 -11 -20 -20 -20 -20 -20 -20 -18 -14 -4 -11 19 5 -20 -17 -20 -20 -20 -20 -20 -20 -20 -20 -20 -20 -20 -20 -20 -20 -20 -20 -20 -20 -20 -20 -20 -20 -20 -20 -20 -20 -20 -20
-17 -9 -20 -20 -20 -20 -20 1 14 9 -18 -19 -12 -13 -20 -20 -20 -20 -20 -20 -20 -20 -20 -20 -20 -20 -20 -20 -20 -20 -20 -20 -20 -20 -20 -20 -20 -20 -20 -20 -20 -20 -20 -20
-20 5 -20 -20 -20 -20 -20 -19 -3 10 -20 -17 -14 11 22 -14 6 -16 -20 -20 -20 -20 -20 -20 -20 -20 -20 -20 -20 -20 -20 -20 -20 -20 -20 -20 -20 -20 -20 -20 -20 -20 -20 -20
-20 -20 9 -20 -20 -20 -20 -20 -1 5 -20 4 -1 11 -3 -10 3 3 -20 -20 -20 -20 -20 -20 -20 -20 -20 -20 -20 -20 -20 -20 -20 -20 -20 -20 -20 -20 -20 -20 -20 -20 -20 -20
-20 -20 -19 -20 -20 -20 -20 -20 -13 2 -2 -17 -1 0 11 -4 -16 -20 -20 -20 -20 -20 -20 -20 -20 -20 -20 -10 -20 -20 -20 -20 -20 -20 -20 -20 -20 -20 -20 -20 -20 -20 -20 -20
-14 -20 -20 -18 -12 -20 -20 -20 -20 -20 11 -20 -4 -15 21 7 -20 -20 -20 -20 -20 -20 -20 -20 -20 -20 -20 -20 3 -20 -20 -20 -20 -20 -20 -20 -20 -20 -20 -20 2 -20 -20 -20
-16 -14 -20 -5 -20 0 -20 -20 -20 -20 -5 -19 -11 1 -5 18 14 -20 -20 -20 -20 -20 -20 -20 -20 -20 -20 -20 -20 -20 -20 -20 -20 -20 -20 -20 -20 -20 -20 5 5 -20 -20 -9
-17 2 -7 -20 -20 0 -20 -20 -20 -20 2 -20 -20 -20 -13 -18 -4 5 -20 -20 -20 -20 -20 -20 -20 -20 -20 -20 -20 -20 -20 -20 -20 -20 -20 -20 -20 -20 -4 -17 -20 -20 -17 -19
-20 -2 1 -1 7 9 -16 -16 -20 4 13 -20 -20 -20 -20 -20 -15 -17 -20 -20 -20 -20 -20 -20 -20 -20 -20 -20 -20 -20 -20 -20 -20 -20 -20 -20 -20 -20 -20 -20 -20 -20 -20 -10
-20 11 0 4 7 -5 8 12 -20 -19 2 -20 -20 -20 -20 -20 -20 -20 -9 -16 -20 -15 -20 -20 -20 -20 -20 -20 -20 -20 -20 -20 -20 -20 -20 -20 -20 -20 -20 -20 -20 -20 -12 -20
3 7 3 2 -20 8 8 -13 5 10 -13 2 -17 -20 -20 -20 -20 -20 -16 -14 -5 -20 -20 -14 -20 -0 -20 -20 -20 -20 -20 -20 -20 -20 -20 -20 -20 -20 -20 -20 -20 -20 -20 -20
7 11 9 -4 -20 4 12 3 -13 5 8 -6 -20 -20 -20 -20 -20 -20 -0 -20 26 3 12 14 11 -11 -20 -20 -20 -20 -20 -20 -20 -20 -20 -20 -20 -20 -20 -20 -20 -20 -20 -20
-14 11 3 -19 7 10 13 -4 -19 -19 5 17 -12 -20 -20 -20 -20 -20 -20 -20 -1 13 21 16 13 -20 2 5 3 -20 -20 -20 -20 -20 -20 -20 -20 -20 -20 -20 -20 -20 -20 -20
-16 -4 6 4 -20 9 26 17 14 -20 7 18 3 2 -14 -8 -1 14 29 29 20 18 17 -5 6 10 -1 8 -4 -20 -20 -20 -20 -20 -20 -20 -20 -20 -20 -20 -20 -20 -20 -20
-20 0 7 -20 -1 14 10 12 0 3 27 4 8 3 11 10 20 33 17 8 10 22 -19 -20 -2 10 2 3 -18 -20 -20 -20 -20 -20 -20 -20 -20 -20 -20 -20 -20 -20 -20 -20
-20 -20 -20 15 4 11 -3 24 8 15 18 12 22 18 12 -11 31 8 22 1 20 11 6 -9 5 4 -4 -18 -20 -20 -20 -19 0 -17 -20 -20 -20 -20 -20 -20 -20 -20 -20 -20
-20 -9 10 4 4 19 -18 20 30 34 30 12 8 15 24 3 -5 6 14 -5 -10 11 -20 -7 25 -5 -8 -20 -20 -17 -14 -4 -20 -20 -20 -20 -20 -20 -20 -20 -20 -20 -20 -20
-20 -10 -7 -7 9 29 29 18 12 10 7 6 5 8 32 15 29 25 9 23 1 6 -12 16 -8 -12 -20 -20 -20 -20 -20 -20 -16 -20 -20 -20 -20 -20 -20 -20 -20 -20 -20 -20
-20 -3 -10 -9 19 27 19 6 17 4 8 29 7 -18 -20 24 26 32 25 -10 -4 -20 7 19 -13 -9 -20 -20 -20 -20 -20 -20 -20 -20 -20 -20 -20 -20 -20 -20 -20 -20 -20 -20
-20 -1 5 17 17 6 3 13 17 20 22 23 28 25 2 18 19 18 16 -8 -20 5 10 -18 1 -19 -20 -20 -20 -20 -15 -19 -20 -20 -20 -11 -4 -2 1 -4 5 -20 -20 -20
-13 -8 -15 4 13 2 29 25 23 32 34 32 34 37 32 23 29 22 -17 2 16 -5 -20 0 7 -20 -20 -20 -15 -11 -19 -17 -17 -19 -8 -6 1 7 6 11 -3 -20 -20 -20
-20 -14 -1 -19 -10 12 28 31 30 30 35 32 33 28 22 25 24 21 18 -5 -20 -20 -9 26 -12 -20 -20 -20 -13 -4 11 15 15 12 10 8 5 7 9 21 16 19 14 5
0 -13 -15 -20 -20 7 16 28 30 34 36 26 17 1 13 8 -3 -6 -2 -20 -15 4 26 16 1 -2 -10 -20 -20 -20 -9 -5 4 8 11 14 16 16 15 6 -11 -14 6 15
-20 -20 -20 -20 -13 -20 -19 -11 28 29 27 29 28 -11 -10 -18 -18 -20 -20 -20 -20 -20 -20 16 15 9 -9 -20 -12 -12 -20 -20 -20 -19 -4 -15 2 1 4 3 -14 12 11 17
Wind_Speed
20 22 25 27 28 29 8 5 1 5 6 3 2 4 8 6 5 1 3 4 6 3 2 6 6 4 2 6 3 5 3 6 5 4 3 1 1 2 1 3 4 4 3 4
20 20 24 27 27 27 5 5 4 3 4 4 5 6 5 3 8 6 5 5 6 3 4 5 5 4 2 6 3 2 4 5 6 4 2 1 3 3 3 6 2 3 2 5
19 20 22 26 28 26 2 3 3 3 4 1 4 5 5 6 4 4 3 4 2 3 7 7 5 6 5 5 6 9 3 4 2 2 4 5 5 8 9 3 2 5 2 3
18 18 21 24 27 26 2 4 3 2 4 5 8 3 6 4 6 6 8 5 8 4 3 4 5 4 3 5 5 4 3 5 6 7 5 2 2 7 10 4 3 3 4 4
17 16 17 20 24 22 4 5 4 4 3 7 9 10 7 8 6 7 5 5 8 6 4 4 3 4 1 1 3 3 2 5 5 4 3 3 3 5 9 7 6 8 5 12
15 17 16 17 19 14 4 3 3 3 5 7 5 5 6 8 5 3 5 3 5 11 7 4 4 3 5 3 2 3 2 5 2 2 1 1 3 6 9 7 6 9 8 3
15 16 14 14 15 8 2 2 2 4 4 4 5 7 9 12 8 3 5 5 2 3 4 1 6 11 11 11 8 3 5 4 2 2 2 0 3 3 4 9 6 10 5 6
12 14 14 12 12 8 3 3 3 3 5 7 4 10 8 8 4 3 3 5 4 3 1 0 2 2 2 6 8 8 4 3 3 1 1 2 2 2 4 4 3 6 10 6
10 12 14 12 11 7 2 1 2 2 5 0 6 6 4 3 6 2 3 3 4 2 2 0 0 1 2 2 3 6 7 6 2 1 1 2 3 3 1 1 4 4 6 3
9 11 12 13 11 7 0 1 1 2 4 4 5 3 4 6 2 3 3 6 4 2 0 1 0 2 1 3 3 2 3 2 1 1 1 2 3 1 2 4 5 5 3 5
9 11 11 11 11 9 2 2 2 1 4 9 8 6 7 4 2 3 6 4 2 1 1 1 1 1 2 1 1 2 4 4 3 2 2 2 4 3 2 5 3 2 2 3
10 11 12 11 11 8 3 3 1 3 4 7 6 14 14 12 11 4 4 4 3 2 1 1 1 2 2 1 1 2 3 2 0 5 1 2 1 2 1 3 7 5 4 0
11 12 13 13 9 9 5 2 1 2 4 8 4 8 9 12 16 11 4 1 2 2 1 1 1 1 1 2 1 2 4 4 3 3 3 5 3 2 3 1 2 3 4 2
12 13 14 13 12 10 9 3 3 1 3 5 5 3 6 4 8 17 17 4 3 3 1 1 1 2 3 1 1 3 2 6 4 5 7 6 5 1 5 5 3 2 2 2
13 14 14 15 13 13 6 4 5 6 3 4 8 14 6 9 10 12 13 12 5 2 2 3 2 1 3 1 1 5 6 5 5 3 3 4 1 5 5 4 3 3 3 2
14 15 15 16 14 11 2 3 2 6 4 2 5 4 5 6 9 10 12 8 5 3 2 2 2 1 3 3 4 3 7 5 3 1 2 6 8 3 6 5 5 4 3 2
15 17 17 17 15 5 3 3 1 8 4 2 4 5 4 7 6 4 4 7 3 3 1 2 1 2 3 3 6 3 6 5 2 1 3 3 1 2 10 7 6 4 3 3
16 19 19 19 15 5 2 4 6 7 2 1 4 5 3 5 4 3 3 2 2 2 1 1 2 2 3 6 6 3 4 2 3 3 1 5 7 7 5 5 5 5 4 4
17 19 15 2 0 2 2 7 12 2 1 3 4 4 1 2 1 3 2 3 4 1 3 3 3 4 7 4 6 6 3 1 1 4 5 6 4 6 7 7 6 6 7 6
14 2 1 1 0 5 4 2 1 2 3 4 5 4 2 2 4 3 3 2 2 2 3 2 4 4 2 4 4 4 1 1 3 3 2 3 8 8 9 10 9 9 10 9
3 3 2 2 4 1 2 3 4 4 4 5 4 4 2 2 2 2 2 2 1 2 2 3 2 3 3 4 4 2 2 2 3 4 6 7 9 10 10 11 10 9 10 10
2 3 3 2 3 3 4 4 4 6 4 4 3 4 5 1 2 2 2 2 2 3 2 2 3 3 5 3 2 2 2 3 4 4 6 7 7 8 9 9 9 9 9 7
0 2 3 3 3 5 5 4 4 3 2 1 1 2 3 2 1 2 2 4 3 3 3 3 0 5 4 3 2 3 4 4 4 5 5 6 7 6 6 7 6 7 5 3
2 2 5 4 3 4 2 3 3 2 3 3 1 1 1 2 3 2 3 2 2 3 3 3 3 6 5 4 3 2 3 4 5 6 6 6 7 6 6 7 7 6 5 4
2 2 4 3 3 3 3 3 4 2 3 3 0 1 1 1 2 2 1 3 3 4 2 1 4 7 6 4 3 3 3 4 4 5 6 6 6 6 6 6 6 6 5 3
2 4 4 3 3 2 3 3 3 3 4 2 1 1 1 1 1 2 3 2 3 0 1 2 5 6 5 4 3 3 3 4 4 5 6 6 7 7 6 7 7 7 6 4
3 3 3 4 4 5 3 2 3 4 4 2 1 1 2 1 2 3 3 3 0 1 2 3 4 6 6 4 3 3 4 4 5 5 7 7 6 6 7 9 8 6 5 4
Wind_Direction
348 349 349 350 350 351 357 337 351 343 312 29 23 1 328 296 327 140 291 313 63 70 76 52 73 88 15 360 346 48 32 101 104 84 40 81 63 153 245 256 159 50 347 106
346 351 351 350 352 358 338 345 299 321 319 39 358 326 324 287 350 11 357 7 38 32 53 96 72 77 354 346 16 77 146 114 122 144 172 124 228 170 114 103 94 177 224 104
350 354 351 351 351 355 8 322 341 357 41 61 328 331 338 337 335 331 349 9 10 37 46 44 114 107 34 28 63 49 73 81 19 92 72 128 177 187 179 135 161 147 228 87
349 351 353 352 354 353 8 10 36 14 355 346 322 285 319 351 11 341 9 34 18 25 73 65 84 79 103 58 10 54 33 81 77 63 83 47 179 191 186 174 166 229 87 153
345 350 357 357 359 352 52 6 349 338 302 326 338 3 351 353 30 8 15 63 31 51 68 15 145 137 160 100 71 67 43 123 160 138 136 205 205 195 200 207 221 250 253 284
347 348 355 3 10 7 23 347 303 288 322 357 353 353 320 322 318 81 39 354 68 61 28 358 18 56 78 97 125 113 81 148 176 91 356 234 213 226 190 184 210 215 218 241
350 347 348 359 10 38 343 346 291 312 312 355 344 323 320 335 4 44 10 25 78 87 313 290 102 86 82 70 50 27 120 98 31 112 243 234 76 58 212 211 229 214 240 267
343 344 348 345 358 26 12 338 352 329 304 326 316 335 329 330 357 37 28 37 8 307 269 191 129 83 85 51 41 37 47 110 104 217 222 341 146 158 161 186 78 193 215 246
341 339 337 339 341 1 22 7 314 319 312 86 332 318 304 310 341 355 35 10 344 326 32 356 266 80 75 146 116 45 68 70 32 113 182 176 82 118 112 246 145 128 175 345
334 330 332 337 338 339 8 291 39 285 283 297 342 318 321 302 315 297 328 345 350 349 344 82 122 119 334 164 195 167 53 42 198 165 301 261 240 324 157 226 90 152 198 322
323 327 326 321 324 333 204 282 197 279 282 285 264 270 274 318 314 356 353 280 167 316 87 283 118 199 114 205 95 190 186 156 172 166 224 204 153 139 230 55 79 9 270 298
322 321 319 319 324 326 162 267 187 204 242 275 287 269 259 246 251 313 304 309 297 342 80 190 162 161 184 225 172 192 213 261 203 230 112 43 178 305 307 283 282 275 265 152
311 317 317 318 325 320 320 263 233 211 274 279 261 247 262 225 233 221 249 237 323 247 327 143 84 227 209 213 189 229 206 181 242 255 165 228 255 291 265 305 298 293 278 291
310 319 318 317 308 304 300 229 199 209 279 283 288 291 274 250 196 200 215 298 313 281 243 255 232 253 215 220 25 259 19 165 210 255 267 257 188 353 0 329 339 309 309 287
312 312 313 308 307 302 302 248 214 206 213 286 296 304 258 219 176 190 205 231 264 249 225 216 227 84 177 144 260 234 188 200 212 274 58 333 76 10 3 338 348 342 330 314
306 307 308 304 298 314 273 281 186 214 188 293 282 306 264 181 183 187 196 203 225 249 268 228 192 302 232 220 241 205 184 198 203 268 339 295 301 199 24 342 334 342 334 338
308 302 303 301 298 289 185 216 1 174 145 230 270 261 232 197 176 189 182 189 200 241 261 255 237 227 212 251 242 247 188 178 182 155 322 257 31 347 323 302 296 304 294 289
306 305 306 300 291 264 179 205 151 135 127 234 265 261 252 175 164 187 156 164 170 204 210 133 216 178 210 251 248 155 160 216 234 173 313 285 296 297 322 331 304 295 285 292
311 312 305 289 152 225 249 195 162 145 233 266 248 271 185 176 195 110 115 166 198 130 217 205 182 190 222 230 203 188 139 200 225 298 297 284 272 311 315 315 298 283 284 284
323 307 55 265 109 282 109 67 146 196 208 226 255 274 264 192 173 116 143 151 202 210 216 158 221 246 84 100 74 81 81 331 326 308 312 321 303 301 298 295 288 280 282 279
25 10 302 341 318 252 228 223 209 179 228 214 234 247 266 143 166 120 227 151 140 228 171 239 234 239 123 125 114 70 22 348 299 291 286 277 273 286 293 296 292 288 284 272
240 288 279 262 237 212 237 211 198 206 240 196 217 219 199 211 161 160 155 165 156 236 121 229 248 103 117 103 70 40 12 328 312 306 305 304 298 301 297 294 297 301 296 283
153 184 245 225 215 239 231 220 197 219 229 334 214 194 142 155 92 88 142 184 215 114 207 234 280 128 124 111 102 100 29 10 3 357 347 336 328 327 331 326 331 326 328 344
297 272 275 239 213 246 300 333 306 306 290 305 277 150 164 125 170 148 207 163 159 225 230 222 144 157 136 113 75 89 38 22 18 12 3 359 353 344 347 354 348 341 354 355
262 275 252 257 347 279 302 293 291 310 301 293 238 84 57 101 158 189 187 198 231 230 250 99 140 140 133 120 98 69 30 9 13 5 4 0 359 358 352 1 352 359 359 359
252 245 276 290 287 323 321 326 311 352 318 284 336 59 192 194 234 207 208 233 235 233 185 122 136 134 126 129 113 60 25 15 12 9 8 8 11 4 354 358 8 358 358 1
276 247 250 264 276 269 304 324 327 316 314 338 319 222 220 351 210 232 197 222 279 147 148 135 137 148 152 136 110 60 34 27 16 6 8 2 357 3 16 11 0 349 342 341